EST,Max TemperatureF,Mean TemperatureF,Min TemperatureF,Max Dew PointF,MeanDew PointF,Min DewpointF,Max Humidity, Mean Humidity, Min Humidity, Max Sea Level PressureIn, Mean Sea Level PressureIn, Min Sea Level PressureIn, Max VisibilityMiles, Mean VisibilityMiles, Min VisibilityMiles, Max Wind SpeedMPH, Mean Wind SpeedMPH, Max Gust SpeedMPH,PrecipitationIn, CloudCover, Events, WindDirDegrees
2013-1-1,47,42,38,34,30,18,75,61,36,30.01,29.96,29.89,10,10,10,10,6,,0.00,4,,216
2013-1-2,41,35,29,32,26,17,91,68,44,30.19,30.07,29.96,10,10,7,6,1,,0.00,3,,19
2013-1-3,42,32,22,23,18,13,87,59,30,30.21,30.17,30.11,10,10,7,8,1,,0.00,1,,207
2013-1-4,45,36,27,21,18,16,67,51,32,30.22,30.18,30.11,10,10,10,10,4,,0.00,1,,231
2013-1-5,48,37,26,28,19,14,71,49,26,30.37,30.26,30.17,10,10,7,9,4,,0.00,1,,211
2013-1-6,47,38,31,31,28,25,79,61,46,30.17,30.10,30.04,10,10,10,12,4,,0.00,6,Rain,213
2013-1-7,44,36,27,27,25,23,84,62,45,30.44,30.35,30.16,10,10,10,14,5,,0.00,3,,318
2013-1-8,56,40,24,32,24,18,86,63,23,30.41,30.36,30.31,10,10,10,15,3,22,0.00,0,,202
2013-1-9,62,44,25,46,35,22,87,69,33,30.43,30.35,30.29,10,10,10,15,3,20,0.00,2,,217
2013-1-10,57,42,29,33,28,21,84,56,31,30.59,30.49,30.44,10,10,10,9,1,,0.00,0,,322
2013-1-11,48,42,36,46,36,26,95,72,47,30.44,30.25,30.10,10,9,0,10,3,16,0.00,6,Fog-Rain,191
2013-1-12,73,55,37,55,47,37,97,83,51,30.16,30.11,30.08,10,6,0,10,1,,0.00,3,Fog,200
2013-1-13,70,58,45,58,52,44,97,82,56,30.10,30.04,30.00,10,7,0,9,2,,0.00,2,Fog,195
2013-1-14,64,52,41,56,48,39,93,75,60,30.30,30.14,29.99,10,9,3,14,7,20,0.20,7,Rain,34
2013-1-15,40,38,36,39,37,34,95,92,88,30.32,30.23,30.11,10,4,1,12,5,,0.92,8,Rain,48
2013-1-16,50,43,36,46,40,35,94,89,76,30.12,29.99,29.84,10,8,2,13,2,17,0.11,8,Rain,195
2013-1-17,48,42,36,42,36,26,93,76,48,30.11,30.05,29.98,10,10,4,9,5,,0.01,8,Rain,189
2013-1-18,42,36,31,32,17,6,92,49,25,30.45,30.35,30.11,10,10,5,15,4,20,0.00,0,,287
2013-1-19,54,41,28,27,22,20,70,48,27,30.40,30.23,30.02,10,10,10,18,7,23,0.00,0,,201
2013-1-20,57,46,35,29,19,4,57,36,21,30.07,29.97,29.90,10,10,10,20,9,29,0.00,0,,222
2013-1-21,50,39,28,16,10,3,57,33,22,30.06,29.95,29.80,10,10,10,24,6,33,0.00,1,,241
2013-1-22,27,20,12,7,-5,-11,66,33,20,30.23,30.13,29.94,10,10,10,18,7,24,0.00,0,,291
2013-1-23,32,19,6,22,3,-8,83,52,19,30.28,30.18,30.04,10,10,3,10,1,16,0.00,4,Snow,244
2013-1-24,27,18,10,23,8,-1,90,63,31,30.50,30.28,29.99,10,9,2,17,4,24,0.00,4,Snow,356
2013-1-25,27,18,9,21,12,4,83,72,44,30.48,30.22,30.00,10,9,2,13,2,17,0.00,5,Snow,187
2013-1-26,39,29,19,23,19,15,88,70,44,30.41,30.18,29.99,10,10,7,9,1,,0.00,5,,16
2013-1-27,40,28,16,24,20,13,86,69,47,30.55,30.46,30.40,10,10,7,9,2,,0.00,1,,184
2013-1-28,57,44,33,44,36,24,92,74,57,30.41,30.24,30.12,10,8,4,16,6,18,0.11,5,Rain,197
2013-1-29,75,60,44,53,48,42,95,68,41,30.15,30.07,29.98,10,9,1,14,6,18,0.03,1,,179
2013-1-30,69,61,53,61,56,47,95,79,67,29.98,29.67,29.30,10,9,2,22,9,28,2.05,7,Rain,183
2013-1-31,55,43,29,51,23,12,83,53,36,29.89,29.67,29.28,10,10,5,22,13,32,0.06,6,Rain,252